TimeEST,TemperatureF,Dew PointF,Humidity,Sea Level PressureIn,VisibilityMPH,Wind Direction,Wind SpeedMPH,Gust SpeedMPH,PrecipitationIn,Events,Conditions,WindDirDegrees,DateUTC
12:53 AM,17.1,8.1,68,30.53,10.0,NNW,15.0,-,N/A,,Clear,330,2013-11-24 05:53:00
1:53 AM,17.1,8.1,68,30.56,10.0,NNW,13.8,21.9,N/A,,Partly Cloudy,330,2013-11-24 06:53:00
2:53 AM,16.0,8.1,71,30.56,10.0,NNW,10.4,-,N/A,,Clear,330,2013-11-24 07:53:00
3:53 AM,15.1,9.0,77,30.56,10.0,NW,9.2,-,N/A,,Clear,320,2013-11-24 08:53:00
4:53 AM,15.1,8.1,74,30.57,10.0,NNW,13.8,-,N/A,,Clear,330,2013-11-24 09:53:00
5:53 AM,15.1,8.1,74,30.59,10.0,NW,10.4,-,N/A,,Clear,320,2013-11-24 10:53:00
6:53 AM,14.0,8.1,77,30.61,10.0,NW,10.4,-,N/A,,Clear,310,2013-11-24 11:53:00
7:53 AM,14.0,8.1,77,30.62,10.0,NW,8.1,-,N/A,,Clear,310,2013-11-24 12:53:00
8:53 AM,17.1,8.1,68,30.64,10.0,NW,12.7,-,N/A,,Clear,320,2013-11-24 13:53:00
9:53 AM,19.9,6.1,55,30.66,10.0,NW,12.7,-,N/A,,Clear,320,2013-11-24 14:53:00
10:53 AM,21.0,3.9,48,30.66,10.0,NNW,10.4,-,N/A,,Partly Cloudy,330,2013-11-24 15:53:00
11:53 AM,21.9,5.0,48,30.64,10.0,NW,12.7,-,N/A,,Mostly Cloudy,320,2013-11-24 16:53:00
12:53 PM,21.9,7.0,53,30.62,10.0,NW,12.7,-,N/A,,Overcast,310,2013-11-24 17:53:00
1:53 PM,21.9,7.0,53,30.61,10.0,NW,12.7,-,N/A,,Overcast,310,2013-11-24 18:53:00
2:53 PM,21.9,9.0,58,30.60,10.0,WNW,11.5,-,N/A,,Overcast,300,2013-11-24 19:53:00
3:53 PM,21.9,12.0,66,30.60,10.0,NW,9.2,-,0.00,,Overcast,310,2013-11-24 20:53:00
4:53 PM,21.9,10.0,60,30.60,10.0,WNW,5.8,-,N/A,,Overcast,300,2013-11-24 21:53:00
5:53 PM,19.9,12.9,74,30.59,10.0,WNW,4.6,-,N/A,,Mostly Cloudy,290,2013-11-24 22:53:00
6:53 PM,19.9,12.9,74,30.59,10.0,Calm,Calm,-,N/A,,Clear,0,2013-11-24 23:53:00
7:53 PM,17.1,12.0,81,30.58,10.0,SSW,4.6,-,N/A,,Clear,200,2013-11-25 00:53:00
8:53 PM,17.1,12.0,81,30.55,10.0,SSW,4.6,-,N/A,,Clear,200,2013-11-25 01:53:00
9:53 PM,17.1,12.0,81,30.55,10.0,SW,5.8,-,N/A,,Clear,230,2013-11-25 02:53:00
10:53 PM,16.0,10.9,81,30.54,10.0,SSW,5.8,-,N/A,,Clear,210,2013-11-25 03:53:00
11:53 PM,17.1,12.0,81,30.52,10.0,SSW,6.9,-,N/A,,Clear,200,2013-11-25 04:53:00